Regional Weather Roundup
Issued by NWS

Home | Current Version | Previous Version | Text Only | Print | Product List | Glossary On
Versions: 1 2 3 4 5 6 7 8 9 10 11 12 13 14 15 16 17 18 19 20 21 22 23 24 25 26 27 28 29 30 31 32 33 34 35 36 37 38 39 40 41 42 43 44 45 46 47 48 49 50
000
ASUS45 KPSR 181810
RWRAZ

ARIZONA HOURLY REGIONAL WEATHER ROUNDUP
NATIONAL WEATHER SERVICE PHOENIX AZ
1100 AM MST FRI AUG 18 2017

NOTE: FAIR INDICATES FEW OR NO CLOUDS BELOW 12,000 FEET WITH NO
SIGNIFICANT WEATHER AND/OR OBSTRUCTIONS TO VISIBILITY.

AZZ001>003-036-181900-
NORTHWEST ARIZONA

CITY           SKY/WX    TMP DP  RH WIND       PRES   REMARKS
BULLHEAD CITY  SUNNY     97  39  13 VRB5      29.92F
KINGMAN        NOT AVBL
$$

AZZ004>008-015-016-018-181900-
NORTH CENTRAL ARIZONA

CITY           SKY/WX    TMP DP  RH WIND       PRES   REMARKS
GRAND CANYON   MOSUNNY   80  33  18 S12G20    30.35S
6HR MIN TEMP:  42; 6HR MAX TEMP:  81;

WILLIAMS       SUNNY     79  36  21 SE8G15    30.35F
PRESCOTT       SUNNY     82  36  19 VRB3      30.24F
6HR MIN TEMP:  54; 6HR MAX TEMP:  83;

FLAGSTAFF      SUNNY     76  32  20 VRB5      30.37F
6HR MIN TEMP:  46; 6HR MAX TEMP:  78;

PAYSON           N/A     84  25  11 SW8       30.26F
PAGE           SUNNY     87  37  17 CALM      30.16S
6HR MIN TEMP:  70; 6HR MAX TEMP:  88;

$$

AZZ009>014-017-181900-
NORTHEAST ARIZONA

CITY           SKY/WX    TMP DP  RH WIND       PRES   REMARKS
WINSLOW        SUNNY     88  35  15 VRB3      30.23F
6HR MIN TEMP:  53; 6HR MAX TEMP:  88;

SAINT JOHNS    SUNNY     82  33  17 W5        30.28F
6HR MIN TEMP:  56; 6HR MAX TEMP:  83;

WINDOW ROCK    SUNNY     85  32  15 W10       30.35F
6HR MIN TEMP:  44; 6HR MAX TEMP:  85;

SHOW LOW       SUNNY     79  32  18 CALM      30.34F
$$

AZZ540-542>544-546-548-181900-
GREATER PHOENIX AREA

CITY           SKY/WX    TMP DP  RH WIND       PRES   REMARKS
PHOENIX        MOSUNNY   95  41  15 SE5       29.95F
6HR MIN TEMP:  79; 6HR MAX TEMP:  96;

BUCKEYE        SUNNY     95  45  17 SE12      29.95F
LUKE AFB       SUNNY     95  41  15 SE3       29.95S
6HR MIN TEMP:  72; 6HR MAX TEMP:  95; 6HR PCP: TRACE;

DEER VALLEY    SUNNY     96  34  11 S8        29.97F
6HR MIN TEMP:  73; 6HR MAX TEMP:  96;

SCOTTSDALE     SUNNY     96  31  10 S6        29.99F
6HR MIN TEMP:  73; 6HR MAX TEMP:  96;

MESA-GATEWAY   SUNNY     93  46  20 VRB3      29.99F
CHANDLER       SUNNY     93  46  20 NE6       29.97F
$$

AZZ539-553-181900-
SOUTHWEST MARICOPA COUNTY AND PINAL COUNTY

CITY           SKY/WX    TMP DP  RH WIND       PRES   REMARKS
CASA GRANDE    SUNNY     93  48  21 SW3       29.99F
6HR MIN TEMP:  70; 6HR MAX TEMP:  93;

GILA BEND      SUNNY     99  47  17 NW3       29.92F
6HR MIN TEMP:  77; 6HR MAX TEMP:  99;

$$

AZZ503-504-507>509-181900-
SOUTHEAST ARIZONA

CITY           SKY/WX    TMP DP  RH WIND       PRES   REMARKS
TUCSON         SUNNY     88  43  20 N6        30.08F
DAVIS-MONTHAN  SUNNY     92  41  16 W3        30.07F
6HR MIN TEMP:  65; 6HR MAX TEMP:  92;

RYAN FIELD     SUNNY     91  41  17 NW5       30.07F
NOGALES        SUNNY     87  48  25 VRB5      30.16F
6HR MIN TEMP:  56; 6HR MAX TEMP:  87;

SIERRA VISTA   SUNNY     88  33  14 E6        30.23S
6HR MIN TEMP:  68; 6HR MAX TEMP:  88;

DOUGLAS        SUNNY     86  44  23 VRB5      30.17F
6HR MIN TEMP:  58; 6HR MAX TEMP:  86;

$$

AZZ532-181900-
SOUTHWEST ARIZONA

CITY           SKY/WX    TMP DP  RH WIND       PRES   REMARKS
YUMA           SUNNY     97  49  19 S7        29.89F
6HR MIN TEMP:  78; 6HR MAX TEMP:  98;

$$

CAZ041-043-047-048-061-525>527-560>570-181900-
SOUTHERN CALIFORNIA

CITY           SKY/WX    TMP DP  RH WIND       PRES   REMARKS
DOWNTOWN L.A.  NOT AVBL
L.A. AIRPORT   MOSUNNY   72  63  73 W9        30.01F
6HR MIN TEMP:  66; 6HR MAX TEMP:  73;

SAN DIEGO      MOSUNNY   75  60  59 NW8       30.02F
6HR MIN TEMP:  69; 6HR MAX TEMP:  76;

BURBANK        SUNNY     78  58  49 SE7       30.00F
6HR MIN TEMP:  63; 6HR MAX TEMP:  78;

ONTARIO        MOSUNNY   78  56  46 SW8       30.01F
6HR MIN TEMP:  63; 6HR MAX TEMP:  78;

RIVERSIDE      SUNNY     79  60  52 VRB3      30.00F
6HR MIN TEMP:  64; 6HR MAX TEMP:  79;

PALM SPRINGS   SUNNY    100  50  18 CALM      29.91S
6HR MIN TEMP:  76; 6HR MAX TEMP: 100;

EL CENTRO NAS  SUNNY     97  48  18 CALM      29.89F
6HR MIN TEMP:  75; 6HR MAX TEMP:  98;

IMPERIAL       SUNNY     97  58  27 CALM      29.87F
6HR MIN TEMP:  75; 6HR MAX TEMP:  97;

BLYTHE         SUNNY     97  44  16 VRB7      29.90F
6HR MIN TEMP:  77; 6HR MAX TEMP:  97;

NEEDLES        SUNNY    102  42  13 E5        29.93F
6HR MIN TEMP:  80; 6HR MAX TEMP: 102;

$$

NVZ020-UTZ003-181900-
SOUTHERN NEVADA-UTAH

CITY           SKY/WX    TMP DP  RH WIND       PRES   REMARKS
LAS VEGAS      MOSUNNY   96  42  15 VRB5      30.01F
6HR MIN TEMP:  80; 6HR MAX TEMP:  96;

SALT LAKE CITY MOSUNNY   86  40  19 NW8       30.15F
6HR MIN TEMP:  65; 6HR MAX TEMP:  86;

$$

NMZ009-TXZ055-181900-
NEW MEXICO-WEST TEXAS

CITY           SKY/WX    TMP DP  RH WIND       PRES   REMARKS
ALBUQUERQUE    MOSUNNY   84  37  18 VRB5      30.25F
6HR MIN TEMP:  66; 6HR MAX TEMP:  84;

EL PASO        NOT AVBL
$$


........................KEY........................
SKY/WX - SKY CONDITION/WEATHER
TMP    - TEMPERATURE IN FAHRENHEIT
DP     - DEW POINT IN FAHRENHEIT
RH     - RELATIVE HUMIDITY IN PERCENT
WIND   - DIRECTION AND SPEED IN MILES PER HOUR (MPH)
VRB    - VARIABLE WIND DIRECTION
PRES   - MEAN SEA LEVEL PRESSURE IN INCHES OF MERCURY
         F - FALLING PRESSURE   R - RISING PRESSURE
         S - STEADY PRESSURE
VSB    - VISIBILITY IN MILES
HX     - HEAT INDEX IN FAHRENHEIT
WCI    - WIND CHILL INDEX IN FAHRENHEIT
TC     - TEMPERATURE IN CELSIUS WHICH IS ALSO KNOWN AS
         TEMPERATURE IN CENTIGRADE
AFB    - AIR FORCE BASE
         LUKE AFB IS LUKE AIR FORCE BASE
         DAVIS-MONTHAN IS DAVIS-MONTHAN AIR FORCE BASE
NAS    - NAVAL AIR STATION
         EL CENTRO NAS IS EL CENTRO NAVAL AIR STATION
N/A    - NOT AVAILABLE




USA.gov is the U.S. government's official web portal to all federal, state and local government web resources and services.